User: anonymous   Login
Location: Elende
(51.4317°N, 10.6316°E)
Time: 13:23:40
(UTC+00:00)
Language:

Meteor 1-21 - Orbit

View from above orbital plane
View from above orbital plane
View from above satellite
View from above satellite

Ground track
Ground track

The orbit data is extracted from the following two-line orbital elements,

1  7714U 75023A   20330.74422813 +.00000113 +00000-0 +59220-4 0  9992
2  7714 081.2123 047.1317 0027631 314.8236 045.0688 14.08022580661900
Epoch (UTC): 25 November 2020 17:51:41
Eccentricity: 0.0027631
inclination: 81.2123°
perigee height: 846 km
apogee height: 886 km
right ascension of ascending node: 47.1317°
argument of perigee: 314.8236°
revolutions per day: 14.08022580
mean anomaly at epoch: 45.0688°
orbit number at epoch: 66190

The dashed part of the orbit path shows where the satellite is in the earth's shadow,  

DLR